GFSSE_con_mucape_198.txt.gz
CAPE
164 488 1747 2233 1590 1783 2294 2260 1797 1958 2149 2230 2110 2055 2058 2206 2268 2468 2183 2176 2575 2274 2670 2290 2019 1669 1522 1803 1886 1790 1891 2094 1912 1524 1380 1102 1086 1460 1412 1741 1591 1125 1406
278 734 2226 2785 1953 1886 2236 2205 1996 2058 2269 2005 2091 1975 1993 2164 1556 2129 2427 2298 2198 1708 1920 1972 1678 2155 2243 2038 1682 1582 1735 1883 1754 1307 673 797 1088 852 1584 1579 1549 1294 1049
576 1100 1980 2939 2391 1879 2048 2183 1951 2052 2013 2207 2181 2236 2149 1954 1630 2401 2180 2010 1770 1573 1380 1519 1889 1824 1784 1837 1786 1698 1811 2097 1430 386 84 38 352 1122 1700 1974 1475 1174 897
623 1529 1890 2696 2582 2124 2114 2187 2285 2183 2187 2232 2027 2171 2166 1332 1479 1998 1841 1620 1572 1619 1696 1642 1569 1469 1419 1464 1450 1450 1579 2081 1504 454 14 0 105 1192 1142 1505 1399 934 1426
741 1669 1800 2700 2384 1977 2052 2428 2258 1860 1651 1972 2180 2161 1722 1769 2059 2056 1935 2155 1631 1542 1516 1523 1502 1354 1219 1125 1167 1296 1450 2026 965 308 126 13 241 826 1474 1504 1358 772 1260
706 1440 2492 2600 2080 2073 2291 2008 2160 1708 1289 1718 1967 1471 1862 2117 1510 1536 1904 1993 1673 1558 1419 1293 1107 1028 1104 1250 1328 1307 1373 2194 1534 71 27 92 458 967 1830 1642 1405 902 1521
1098 1946 1964 2803 2487 1965 1848 1722 1504 1632 1988 2071 1459 1275 1505 1709 1606 1628 1672 1622 1447 1349 1213 1115 1148 1175 1108 1066 1275 1876 1900 2148 1108 187 135 493 547 783 1985 1954 1660 1130 1839
1431 1761 1744 2477 2224 1750 1414 1447 1354 976 1696 1972 2186 1418 1225 1290 1476 1575 1586 1541 1413 1244 1060 1109 1289 1516 1830 2178 2729 3008 2966 2826 1556 438 233 152 125 477 1950 2352 2348 1561 1780
1257 1367 1505 1523 1777 2121 1430 1329 1923 1068 713 1264 1623 1881 1478 1583 1799 1794 1743 1602 1351 1442 1584 1768 2168 2427 2836 2879 3209 3132 3367 2777 1678 619 385 195 461 1234 2231 2634 1965 1797 1467
879 1203 1195 1604 1625 1332 686 741 1730 1360 848 938 1361 1559 1530 1624 1662 1589 1981 2026 1848 1979 2071 2279 2735 3714 3844 3868 3880 3866 3892 3509 2291 1075 500 309 1242 1574 2521 2402 2237 2167 1866
657 957 1052 1370 971 363 244 202 1019 833 1149 1346 1394 1551 1481 1188 1104 1380 1644 1957 2107 2138 2548 3335 3470 3334 3307 3744 3944 3974 4214 3318 2433 1828 1096 442 1659 2362 2985 3036 2873 2769 2140
468 668 789 1128 793 151 666 1086 1109 563 894 1054 1266 1036 1010 404 569 1176 1747 2272 2462 2708 3155 1883 2410 2713 2756 1715 1020 1366 316 1131 2753 2261 1617 853 2346 2458 3288 3316 3189 3081 2227
400 490 699 1015 456 83 302 1321 1508 1114 941 1026 977 910 724 988 1125 1217 1405 1316 1495 1862 1819 1060 1207 1193 1401 1716 1129 770 511 846 1297 1920 1783 1479 2892 2831 3287 2772 3043 2662 2579
386 425 634 864 331 0 15 522 754 541 575 521 682 745 1132 856 1082 1183 1251 1087 999 1059 1281 1481 1952 2032 1878 1529 968 903 702 319 771 864 818 2826 2674 2954 2656 2575 2437 2339 2247
292 389 472 736 41 0 157 294 503 478 678 832 904 1101 905 689 1213 1356 990 681 885 1205 1190 1460 1568 1577 1875 1438 1166 910 567 306 461 385 888 3037 2951 2816 2779 2398 2382 2351 2131
190 451 347 57 0 10 166 342 583 582 654 897 1124 869 805 1288 1485 1050 699 914 872 1087 1587 1751 1760 1602 2058 1313 1448 1360 647 321 299 264 517 1891 2967 3001 2903 2977 2887 2512 2100
240 367 67 0 17 305 214 916 1223 657 802 858 1255 527 910 1026 786 1471 1527 1618 1692 1384 1361 1700 2324 2443 1358 1535 1570 1054 699 392 132 334 434 722 1850 2780 2641 2778 2612 1892 1594
296 44 0 2 77 1139 953 1009 663 693 733 819 1048 1149 1056 1055 1483 1501 1360 1975 1838 1774 1840 2169 2416 1795 1384 1842 1960 1433 337 198 149 435 368 378 1104 1296 2348 2175 1655 1710 1223
38 35 0 0 27 991 832 1301 907 896 887 701 835 1028 1167 1084 1108 1188 812 1590 1604 1522 2243 2323 2105 1930 1722 2295 1794 1510 407 271 241 274 332 305 687 275 356 1365 1035 1153 829
17 1 2 0 64 844 741 1421 723 665 666 902 1046 1144 888 747 763 723 968 1267 1638 1835 1609 2305 2082 2155 2397 1682 1626 1470 193 303 330 487 671 633 337 215 138 267 225 236 1255
25 6 3 12 73 741 718 1365 908 484 572 726 494 1083 922 818 750 1209 1343 1236 1255 2040 2422 2515 2425 2132 2098 1788 1586 1316 246 398 448 658 723 423 368 412 308 216 248 185 142
80 46 63 74 118 495 631 893 1043 825 669 634 440 956 1000 935 953 1109 1319 1185 1304 1692 2284 2071 2536 2420 2346 2218 2189 1299 725 158 483 376 817 629 648 402 233 276 337 255 417
201 84 205 149 234 475 606 694 1007 865 818 980 888 954 1202 1010 999 1347 1199 1273 1393 1693 2516 2198 2458 2586 2570 2587 2175 1422 812 565 603 460 698 741 724 634 559 512 510 462 483
161 259 176 340 342 489 701 647 661 737 655 747 978 1166 1204 1272 1168 950 1275 1506 1921 2273 2489 2566 2630 2696 2974 2852 2177 1451 1103 907 948 936 950 793 634 599 627 818 847 619 583
99 311 266 485 468 428 504 666 498 479 486 616 784 1017 1217 1419 1259 1310 1464 1737 2276 2606 2554 2712 2749 2470 2936 3032 2356 1680 1220 1165 1072 1019 1045 1041 496 312 341 561 951 508 190
74 229 403 310 641 446 370 616 685 445 402 621 739 698 783 1173 1485 1461 1549 1732 1978 2057 2358 2727 2786 2781 3265 2944 2419 2237 1943 1410 1283 1197 1182 938 569 376 142 206 264 104 10

GFSSE_con_mucape_201.txt.gz
CAPE
260 805 1713 1734 1771 2407 1993 1852 2191 2353 2348 2309 2269 2392 2296 2394 2353 2102 2466 2376 2581 2141 1907 1986 1666 1631 1625 1436 1574 1906 2056 1554 1365 1245 1120 1392 1629 1465 1832 1820 1453 1229 1313
329 914 1945 2256 2169 2338 2250 1864 2508 2230 2128 2303 2116 2371 1932 2063 2314 2389 2539 2117 1931 2402 2187 1702 2276 2149 1745 1697 1711 1805 1755 1832 1580 1760 1724 1165 1045 1375 1338 1620 1301 938 984
548 1186 1995 2450 2159 2219 2243 1844 2041 2238 2417 2283 2269 2219 1772 2303 2218 2640 1964 1662 1594 1463 1608 2150 2026 1939 1935 1839 1776 1730 2026 1677 1207 814 185 439 779 911 1695 1752 1411 1154 879
925 1648 2221 2508 2404 2073 2105 2424 2142 2067 2233 2077 2266 2249 1304 1717 2449 2146 1733 1765 1694 1496 1640 1746 1607 1564 1547 1493 1488 1531 1879 1922 1549 1107 254 0 309 1261 1774 1945 1419 912 880
1301 1647 1887 2262 2137 2085 2152 2126 2301 2140 2410 2096 2249 1664 1703 2177 2318 1648 2057 1657 1611 1631 1536 1592 1520 1344 1207 1201 1299 1427 1536 2163 1558 695 41 0 120 1005 1281 1513 1320 916 1415
1380 1651 2008 2196 1930 2016 2374 2194 1714 1282 1469 2190 1910 1758 2089 1801 1808 1963 1846 1550 1566 1529 1446 1333 1171 1149 1285 1332 1329 1375 1377 1975 2197 993 26 0 28 327 1775 1439 1487 740 1290
1236 1685 1848 2539 2225 2289 1976 2260 1716 1542 1949 1980 1414 1624 2157 1636 1522 1813 1794 1626 1504 1388 1272 1192 1222 1193 1091 1098 1257 1698 1826 2180 2166 814 26 0 285 470 1662 1516 1620 978 1470
1453 1708 1978 2261 2027 1846 1708 1352 1367 1965 2117 2102 1056 1347 1468 1461 1471 1477 1504 1480 1440 1334 1206 1225 1389 1703 2038 2328 2584 3030 2744 2568 2382 1113 149 160 72 608 1454 1831 1981 1381 1535
1502 1629 1783 1691 1597 1458 1233 1695 849 1256 1884 2008 2183 1684 1125 1457 1785 1828 1761 1731 1584 1612 1840 2014 2240 2228 2735 2935 3165 3311 3318 2564 1976 1362 302 131 96 95 646 2174 2249 1899 1635
1360 1397 1419 1542 1741 1377 838 2207 1535 620 1107 1187 1679 1583 1450 1566 1654 1650 1760 1874 1914 2266 2401 2567 2753 3496 3547 3185 3345 3707 3945 3340 2437 1942 847 301 577 1500 1568 2293 2450 2114 1960
1061 1115 1201 1585 1497 922 393 1158 1535 934 891 1119 1366 1525 1422 1344 1072 1319 1659 2131 2354 2716 2446 2915 2692 3160 3512 3250 2896 3153 2860 3022 2927 2280 1509 835 499 1788 1985 2693 2780 2662 2164
714 853 1297 1129 540 130 343 263 626 629 941 1043 1097 980 1129 493 515 863 1782 2541 2856 2593 2941 3604 2094 2353 2228 1640 1194 761 345 1460 2887 2292 1779 1337 772 1788 2447 3390 3270 2960 2253
366 591 977 919 395 0 425 859 784 527 722 824 852 822 693 785 973 1160 1277 1351 1084 1630 1579 1442 1395 1765 1789 1220 947 842 426 773 1718 2257 1793 1519 1536 2296 2460 3409 3539 2899 2457
324 416 577 782 290 0 112 1159 1163 805 652 629 587 576 832 775 817 1136 1094 1225 1131 1095 1124 1311 1523 1502 1764 1566 1189 813 563 319 652 790 1503 1957 2311 2880 2612 3430 2849 2436 2196
302 370 485 719 207 0 0 549 634 527 381 448 674 744 1024 871 1007 1252 1063 970 822 1075 1129 1247 1473 1461 1837 1431 1312 1257 631 376 313 484 630 2557 2808 2781 2676 2630 2192 2257 2235
240 320 379 598 284 0 98 202 291 416 484 607 710 963 1108 778 1191 1027 991 1181 1083 1036 1141 1484 1702 1520 2062 1385 1480 976 703 714 446 297 319 1062 2880 2902 2683 2563 3065 2699 2465
129 291 294 415 280 86 215 371 574 770 611 683 787 973 966 1100 1309 1129 1424 1468 1690 1798 1414 1456 1608 2013 1429 1146 1587 1378 436 244 100 296 332 689 1482 2874 2882 2720 2573 2185 1921
35 261 296 100 19 21 108 194 1098 1193 766 647 782 1003 789 839 1071 1263 1576 1639 1701 1452 1616 1639 1901 2056 1317 1417 1812 1421 905 249 164 351 340 401 733 1247 1800 2226 2023 1788 1546
24 174 320 0 0 523 249 593 905 707 757 743 773 933 1119 1072 1104 1298 1141 1183 1459 1568 1971 2149 2095 1754 1604 1744 1496 1283 1022 222 304 262 258 297 373 758 385 1042 1801 1783 921
55 125 181 0 0 857 566 1132 875 746 747 950 805 935 926 1050 1182 930 681 944 1089 1585 1674 1993 2059 1920 2112 1882 1595 1392 1012 243 351 504 609 523 542 549 242 257 216 389 1602
35 168 19 0 0 539 653 1076 1057 588 547 737 796 675 918 1155 1010 717 725 1063 1060 1327 1946 2144 2186 2232 2055 2046 1773 1285 615 136 336 282 606 421 388 366 401 362 211 215 311
22 107 6 1 0 294 592 822 1027 732 353 549 642 463 772 1178 850 660 1008 1177 1162 1041 1687 1998 2051 2080 2256 2147 1900 1103 796 291 192 403 459 649 661 497 509 496 321 322 334
5 6 0 0 0 105 519 571 963 696 612 668 669 780 894 1099 972 835 988 1145 1246 1231 1447 2094 2180 2336 2380 2221 2006 1258 872 532 654 585 590 508 511 483 497 677 492 428 553
0 1 0 0 0 24 397 481 650 651 400 451 582 729 1037 1198 1020 1058 1058 1501 1357 1335 1682 2148 2144 2369 2400 2413 2179 1370 1152 1082 775 692 669 542 514 278 363 558 845 675 605
0 0 2 11 13 96 207 260 312 471 461 367 448 672 890 1047 1278 1287 1242 1051 1259 1584 1975 2338 1934 1929 2161 2372 1883 1387 1229 1022 726 802 737 809 393 294 345 480 310 190 40
1 55 11 71 50 134 226 384 285 159 349 444 343 512 664 781 945 1419 1505 1333 1505 1724 1905 1991 1940 1732 1901 1930 1792 1324 940 886 863 880 748 724 567 212 60 11 13 16 0

GFSSE_con_mucape_207.txt.gz
CAPE
1098 1458 1892 2012 1825 1602 1981 2257 2287 2465 2391 2443 2553 2365 2183 2146 2172 2164 2431 2308 2223 2025 1628 1606 1641 1587 1570 1780 1940 1741 1412 1362 1254 1268 1421 1588 1514 1295 1237 1291 1107 542 1000
1204 1219 1960 2318 1839 1712 2250 2149 2086 2322 2337 2341 2178 2195 2147 2309 2317 2359 2392 2053 1972 1895 2263 1933 1794 1891 1847 1831 1885 1890 2022 1686 1570 1429 1134 1007 1416 1419 1272 1219 1167 1084 1334
1068 984 1787 2359 1744 2247 1861 1837 1980 1974 2333 2017 2247 2439 2272 2194 2239 1892 1824 2045 1651 2340 2079 2016 1934 1881 1848 1834 1829 1972 1832 1543 1260 799 759 572 673 1145 1307 1239 1190 1007 1008
833 979 1467 2412 2242 1827 2091 2197 2155 2060 2090 1975 1736 2383 2195 2170 1932 1768 1627 1392 1917 1980 1823 1779 1711 1616 1486 1416 1451 1514 1678 1830 1770 1493 486 32 145 855 1277 1665 1596 955 1013
954 1059 1623 2226 2015 2197 1932 2128 1977 2105 2164 1913 1243 2022 2031 1824 1712 1617 1592 1692 1714 1755 1742 1466 1317 1291 1320 1384 1429 1430 1471 1495 1599 1774 958 306 147 192 1349 1627 1372 961 1044
966 720 1778 2144 2169 2112 1944 2128 2299 1978 2298 1543 1849 2149 2270 1970 2149 1703 1739 1746 1667 1584 1481 1362 1344 1390 1402 1395 1388 1383 1459 1483 1775 2020 1815 491 130 67 939 1452 1276 1047 1113
1170 686 1184 2433 1962 2110 1817 1439 1527 2040 1845 1701 2232 1993 1604 1894 2218 1933 1721 1561 1414 1286 1197 1232 1431 1732 2048 2243 2435 2774 2739 2440 2209 2029 1876 192 317 215 628 1859 1503 1387 1052
1225 1052 1363 2057 2097 1823 1919 990 1426 1749 1623 1320 1860 1804 1702 1743 1687 1733 1723 1719 1681 1735 1975 2265 2528 2753 2853 2872 3526 3639 3619 2682 2060 2173 2086 459 319 334 950 1457 1805 1906 1384
1244 1212 1382 1829 1867 1889 1694 1315 1944 2229 1431 1199 1396 1367 1548 1928 1947 1860 1923 1916 2038 2360 2652 2794 3035 3289 3267 3376 3775 3950 4126 3624 2821 2268 2090 1224 248 183 437 376 1640 2089 2008
1081 1328 1561 1506 1235 905 718 1027 1871 1868 2067 2072 1835 1579 1688 1994 2154 2133 2252 2056 2551 2638 2875 2726 3005 2693 3430 3539 3937 3550 2840 2081 2425 2549 2462 1931 680 805 1540 1774 1433 2306 2056
922 1395 1320 1104 1237 1131 1572 490 782 1418 1265 1575 1502 1630 1921 1808 1624 1569 1845 2421 3008 3053 2775 2813 2788 2637 3045 2350 2340 2202 1350 1350 2215 2527 2578 1779 1201 1261 1409 2118 2180 2699 2157
666 971 949 1302 1007 705 1271 1090 698 660 830 1341 1546 1860 1340 1369 1448 1967 2040 2233 1996 2016 2173 2218 2098 1927 2422 2207 1638 1523 905 899 1331 2169 2331 1800 1757 1697 1648 2461 2566 2917 2409
653 687 801 1391 1435 478 475 986 596 881 1107 1300 1604 1779 1823 1860 2032 2042 2211 2116 2226 1291 1573 1743 1900 2078 2421 2391 1972 1671 1221 759 805 979 1524 1915 2111 2234 1982 2451 2730 2852 2713
642 527 622 1229 1029 270 57 480 577 790 1047 1188 1411 1760 1824 1933 2236 2475 2271 1996 2042 1633 2110 2143 2183 2494 2431 2667 2120 2052 1231 1173 892 821 917 1890 2259 2417 2101 2435 2607 2983 3067
565 438 639 1128 751 100 271 401 651 870 1014 1087 1216 1495 1814 2056 2166 2325 2223 1971 1936 1714 1884 2330 2147 2452 2962 2544 2049 2338 1965 1023 858 814 946 1180 2434 2436 2535 2333 2755 2963 2591
425 239 531 860 614 73 280 1051 942 905 900 1019 1240 1485 2006 2147 2044 2395 2107 2089 2327 2731 2805 2518 2501 2598 2913 2633 2331 2596 2336 1433 662 543 632 960 1242 2812 2619 2609 2596 2562 2529
378 125 365 591 353 65 158 664 735 669 750 1078 1235 1515 1784 1972 1589 2518 2255 2372 2656 2645 2955 2848 3003 2954 2960 2505 2753 2523 2221 1942 1247 672 1022 1178 1096 1661 2587 2519 2452 2252 2094
347 300 412 235 366 215 77 239 230 412 988 1337 1436 1636 1953 2018 1373 2153 1971 2191 2156 2626 2582 2969 3337 3152 2936 2911 2978 2592 2289 1991 1095 993 1094 1279 1367 1251 1652 1938 2276 2192 1752
501 520 610 578 547 293 146 173 435 668 971 1451 1570 1654 1989 2104 1860 2011 2152 2245 2067 1962 2502 3565 3150 3372 3005 3066 2594 2475 2576 1683 851 970 1620 1575 1734 1614 1586 1224 1005 1939 1356
519 668 712 611 625 574 209 385 519 1156 1498 1570 1668 1598 1863 1935 2119 2341 2016 2209 1858 1682 2064 2545 3530 3099 2976 2901 2490 2613 2302 1143 986 1151 1385 1108 1311 1353 1355 1279 1086 1006 1033
411 526 787 609 652 525 359 430 911 1601 1597 1561 1654 1793 2065 2035 1994 2354 2040 1968 1815 1916 2203 2668 2860 2935 4228 3062 2561 1734 1578 937 675 1055 1128 1500 1573 1375 1525 1668 1711 1398 1034
339 523 698 790 677 570 452 1079 1261 1752 1397 1358 1473 1736 1657 1662 1902 2170 2282 1996 1899 1962 2504 2408 2837 2675 2780 2904 2858 2026 878 681 669 1104 1646 1496 1563 1101 1117 1311 1692 1419 1018
401 465 598 797 813 628 702 1219 1446 1481 1342 1303 1300 1446 1580 1797 2220 2359 2420 2239 2294 2347 1954 2232 2232 2017 1625 1698 1959 2422 952 509 641 1186 1596 1633 1057 806 1094 1420 1707 1621 1511
296 411 587 766 816 736 957 1365 1635 1231 1148 1207 1464 1349 1603 1870 2167 2349 2540 2564 2700 2232 2376 2632 2529 2784 2435 1947 2323 1875 2004 1844 696 627 1015 1268 819 632 407 405 307 263 330
262 296 415 638 796 1002 1006 1345 1499 1661 1069 1149 1210 1538 1893 1981 2015 1967 2277 2700 2893 2478 2504 2831 2952 3097 3529 3803 3337 2552 1854 1385 1246 1375 809 1053 1108 404 414 307 263 87 33
240 278 324 497 905 961 774 1093 1778 2081 1671 1055 1114 997 1109 1225 1417 1825 2010 2409 2699 2951 3109 3327 2994 3048 3249 3367 3657 2877 3023 1489 1588 1237 949 1494 1512 382 294 257 148 57 81

GFSSE_con_mucape_210.txt.gz
CAPE
1047 992 1718 2267 2024 2052 2281 2181 2151 2125 2292 2361 2445 2145 2271 2317 2306 2517 2375 2287 2198 1743 1728 1713 1666 1670 1914 2092 1928 1551 1494 1464 1252 1276 1472 1531 1174 1204 1180 1129 1046 594 1374
1026 1083 1814 2198 2252 2314 2212 2354 2231 2534 2382 2312 2360 2400 2407 2293 2094 2235 2048 2030 1849 1809 2166 1937 1948 1894 1890 1919 1983 1939 1577 1644 1343 1241 988 1063 1401 1262 1036 1123 1077 899 1161
680 1248 1452 2188 2188 2277 2145 2183 2510 2412 2383 2356 2401 2018 2061 2325 1925 1805 2068 1694 1886 2169 2091 1882 1797 1796 1840 1867 1904 2015 1654 1493 1205 800 1144 625 992 1168 1306 1382 890 866 1315
429 1300 1411 2243 2632 1958 1976 2073 2084 2339 1862 1868 2089 2245 2217 2000 1686 1635 1469 1890 2018 1827 1796 1737 1637 1477 1348 1298 1328 1395 1504 1684 1705 1583 698 167 264 807 1245 1613 1357 826 915
522 1008 1866 1872 1913 1947 2372 2155 2303 2256 1956 1517 2424 2175 2176 1734 1730 1616 1696 1788 1701 1733 1470 1325 1273 1284 1371 1432 1460 1484 1409 1298 1456 2097 1343 484 383 1048 1430 1363 1489 823 957
582 1183 1845 2037 2281 1850 2120 1786 1960 2340 1426 1381 1950 2367 1962 2255 1761 1718 1745 1698 1560 1463 1324 1160 1126 1232 1348 1484 1633 1667 1668 1704 1731 2004 1872 778 444 454 1402 1459 1056 1100 1062
643 1001 1447 1998 1947 2157 1871 2129 2053 2113 1827 1909 1995 1890 2004 2298 2150 1819 1625 1391 1247 1180 1377 1842 2223 2452 2615 2714 2805 2958 2846 2700 2615 2092 2016 745 885 156 859 2022 1555 1224 1015
440 669 1226 1814 2038 1786 1020 1110 1539 1823 1412 2255 1954 1747 1848 1677 1627 1621 1642 1756 1863 2082 2435 2716 2947 3198 3282 3025 3429 3667 3145 2828 2205 2192 2123 1159 855 800 1044 1740 1865 1919 1274
783 983 1262 1546 1603 2069 1044 1637 1907 1232 1242 1459 1575 1556 1646 1874 1835 1790 1784 1754 2059 2382 2780 2827 2977 2830 3169 3359 3620 3879 3511 2615 2850 2184 2190 1594 607 381 433 698 1956 2114 1721
888 798 1014 1505 804 808 423 1770 2266 2284 1404 1491 1371 1562 1703 1803 2044 2106 1997 2185 2672 2721 2730 2629 2912 2719 3209 3464 3074 3099 3085 2707 1761 1834 2366 2067 759 668 1294 1808 1055 2108 2239
704 813 685 688 747 557 552 1388 1595 1526 1737 1535 1467 1571 1815 1722 1797 1941 1643 2458 2794 2737 2640 2420 2486 2598 3261 3353 1835 2088 2828 784 946 1331 1658 2221 1563 1562 1528 2254 2002 2384 2427
542 513 482 464 298 553 96 543 585 631 1007 1490 1586 1663 1276 1706 1866 1775 1909 2032 2000 1822 2182 2019 2063 2541 2957 1498 1345 2216 868 762 862 1033 1884 2462 2183 2086 1850 2418 2429 2776 2740
480 330 440 423 151 315 354 426 473 877 1231 1447 1645 1934 2091 2120 2153 1918 1760 1824 2015 1450 1635 1939 1980 1979 2333 2242 1552 1312 1140 885 791 828 1695 2363 2341 2458 2317 2380 2672 2566 2505
475 268 329 401 530 112 496 462 515 659 868 767 1418 2168 2294 1935 2100 2175 1864 1801 1973 1786 2323 2184 2115 2659 2869 2580 2284 1996 1643 889 778 695 1602 2362 2484 2737 2606 2370 2272 1986 2428
535 257 187 461 561 182 415 534 685 640 732 1126 1492 2077 2121 2016 2110 1843 2187 2055 2092 2069 2143 2501 2464 2750 2920 2153 2349 2538 2136 1837 1187 601 729 2146 2204 2511 2461 2223 1993 1641 1682
466 240 151 362 289 34 302 976 1206 833 1107 1134 1394 1732 2361 2185 2428 2102 2148 2199 2411 2424 2694 2799 3536 3373 2948 2181 2015 2613 2551 1657 1685 1300 668 1191 1682 2342 2679 2272 2148 1674 1496
518 176 54 153 82 53 476 1268 1053 781 663 1069 1261 1847 2015 2274 2221 2872 2083 2249 2380 2628 2813 2537 2472 1969 1828 1709 1765 1710 1834 1626 1506 1576 1246 1094 1245 1798 2778 2599 2746 2536 1819
429 198 63 0 0 38 385 841 642 626 809 967 1122 1317 1844 2049 2198 2141 1856 1900 2329 2207 2233 2109 1738 1694 1715 1879 1855 1629 1698 1831 1688 1365 1375 1534 1524 1395 2270 2083 1943 2100 1862
395 320 225 0 37 166 411 605 939 1268 1327 1025 1111 1247 1595 1901 1751 2183 1648 1634 2412 1496 1515 1600 1714 2167 2191 1915 1890 1600 1543 1548 1111 896 1545 1717 1552 1700 1621 1495 925 1368 1734
609 597 348 157 321 467 429 896 1012 958 1299 1298 1325 1301 1876 1856 2348 2714 2117 2514 2555 1334 1566 2216 2746 2515 1768 1384 1668 1944 1491 1263 823 904 1234 1382 1532 1789 1697 1854 1955 1782 1394
828 770 739 321 664 683 654 905 1013 1158 968 875 1154 1803 2380 2168 2104 2600 2193 2254 2395 2214 2758 2791 2537 2757 684 599 1382 1320 1279 1034 1015 859 1081 1330 1627 1657 1761 1925 2229 2253 1823
865 1036 951 430 687 825 782 997 859 1130 998 481 756 1448 1990 1977 2027 2248 2972 2428 2481 2432 2762 3054 2974 2450 1865 1556 1600 1643 1000 908 869 781 1501 1460 1681 1566 1682 1895 2068 2170 1946
754 1081 1346 870 865 918 1167 1110 1685 1887 2119 1599 1054 987 1036 1775 2024 2455 2893 3211 3247 3449 2471 2868 2105 2428 2363 2031 2459 2083 943 514 930 1041 1526 1646 1938 1704 1365 1436 1496 1805 1964
676 910 1174 1576 973 970 1341 1845 2365 1120 1064 737 801 393 579 1347 1750 1930 2532 2993 3312 2896 3447 2973 2992 3579 3560 3564 2507 3631 2821 2188 1509 1060 1336 1793 1879 899 867 643 553 438 591
661 816 1082 1469 1922 1843 1448 1931 1511 1621 790 849 965 1238 1859 1887 1917 1677 1873 2565 3031 2953 2923 3597 3611 3320 3348 2921 3206 2405 2314 2142 2117 1671 903 2475 2082 627 246 317 360 312 161
621 722 871 1436 2353 2092 1946 1926 2146 2099 1983 1034 1312 1004 888 649 834 1331 1749 2250 2825 3193 3259 3443 4252 3376 3797 3253 2352 2407 2484 2527 2604 1845 947 1627 2143 1430 291 306 390 384 371

GFSSE_con_mucape_216.txt.gz
CAPE
1290 1161 2310 2025 1987 2234 2626 2771 2828 2585 2397 2232 2252 2380 2217 2161 2199 2270 2401 2431 2309 2108 1595 1685 1748 1819 1679 1362 1356 1352 1314 1175 1053 1321 953 1032 938 868 721 695 745 860 1275
671 1323 2606 2399 2110 2163 2305 2634 2677 2604 2332 2277 2341 2201 2350 2274 2250 1858 2011 2041 2216 1922 1814 1699 1703 1738 1794 1685 1420 1257 1300 1011 885 772 1124 1000 969 803 608 837 1741 943 1061
470 857 1686 2713 2342 2224 2124 2554 2565 2533 2312 2266 2181 2157 2130 1959 2116 1916 2141 2068 1925 1748 1729 1722 1677 1618 1624 1691 1752 1616 1215 1044 952 855 844 1420 611 1220 1056 602 1201 1252 1052
431 549 1062 2527 2568 2334 2565 2648 2811 2412 2158 2457 2141 2277 1816 1626 1477 2090 1962 1717 1726 1660 1564 1393 1211 1110 1057 1026 1019 1007 1155 1365 1651 1663 1512 1322 1110 1276 1318 1113 498 1178 797
245 495 1474 2123 2010 2021 2094 2273 2405 1973 2263 2284 2203 1682 1823 1452 1372 1758 1485 1486 1325 1158 1119 1054 1050 1076 1099 1086 1046 1114 1325 1668 1232 1454 1731 1057 631 1323 1655 1602 785 519 866
504 973 2048 2342 2042 2077 2177 2467 1918 1588 2346 2297 1606 1860 1512 1427 1349 1399 1348 1172 960 695 647 859 1385 1922 2155 2271 2181 1948 2141 2177 1766 1545 1879 204 1436 1918 1787 1778 1223 1163 1377
559 405 1252 2206 2053 1597 1776 2062 1446 1763 2159 2318 2065 1989 1954 1584 1461 1252 915 732 873 1289 1743 2185 2507 2759 2893 2916 3200 3408 3446 2655 1244 225 443 699 1460 2530 1779 1790 1685 1114 1465
550 776 1343 2126 1974 2016 1960 2091 1631 1912 1876 1608 1599 1820 1527 1178 1005 905 960 1316 1624 1914 2265 2608 2758 2810 2630 2815 3412 3748 3879 2692 854 349 514 755 1583 2291 1876 2031 1778 1194 1363
803 908 928 1124 1356 973 1267 1925 1175 1959 2028 1296 1315 1164 984 1072 1045 1101 1245 1264 1674 2284 2462 2500 2730 3209 3203 3526 3682 3745 3863 1782 98 0 420 526 1699 2149 1460 2345 2357 2266 1697
931 754 1485 1431 726 223 497 1258 794 1184 1286 1012 1035 1094 1178 1286 1352 1555 2075 1649 2104 2552 2636 3192 3376 2639 1999 2934 3900 3869 4068 250 313 43 53 653 1970 1913 1337 1689 2209 2733 2631
499 924 786 930 1333 1263 1467 1904 1218 919 977 945 1048 1211 1391 1792 1642 2159 2365 1780 2068 2733 2287 730 1254 459 171 515 2285 3793 3057 1251 218 308 475 1599 1895 1712 1349 1509 1817 2649 2890
68 477 412 466 769 1054 837 1997 1651 950 963 1297 1340 1803 1668 1933 1405 1926 1351 2398 3035 1465 144 570 506 514 509 677 1094 2206 241 352 753 373 947 2057 2395 2449 2300 2803 2783 2402 2780
110 111 211 655 959 482 790 1191 994 934 1095 2200 2426 3270 3106 2445 2662 2144 2182 1535 796 224 143 477 732 1050 108 190 783 1141 540 504 839 1047 1565 2913 2936 2887 2526 2893 3045 2972 3102
91 89 57 402 1605 1000 852 867 1052 913 1235 1275 2050 3604 2588 3010 3353 882 2262 205 302 82 479 950 1600 2707 560 535 963 1768 1172 1256 945 1355 2570 3324 3143 3219 3026 3084 3258 3167 3253
292 275 508 747 1402 2341 2059 2340 1969 1318 819 1892 2647 3171 1596 1701 3328 3160 2625 1034 667 733 925 759 1564 531 1561 989 1325 1652 1508 1587 1363 1426 1797 3827 3501 3523 3570 3432 3473 3313 2986
325 267 597 1042 1608 1677 2654 2510 2717 1914 2275 1752 1764 2417 2869 2376 3873 3196 1962 2793 2979 2382 3111 1029 2820 751 0 14 1621 1600 1750 1157 1683 1536 1426 2951 3530 3595 3504 3310 2933 2905 2770
378 213 566 1042 1030 1620 2385 2157 2587 1950 998 1822 2367 2525 2272 3059 3553 4167 2923 2281 2692 3200 2929 2500 2770 289 42 31 436 651 619 1577 1862 1370 1521 1770 2834 3474 3449 2989 2825 2523 2590
288 545 515 136 739 1184 2497 2661 2218 1302 1254 1731 1996 2104 2650 2783 2760 3473 2444 3082 3192 2648 3445 2693 1802 684 336 144 51 115 176 905 2106 1416 1455 1800 2147 1749 3195 3120 2874 2471 2248
846 787 685 1063 704 1009 2383 2206 2646 2566 2149 2042 1885 2190 3482 2393 2371 2836 2386 3594 3436 3872 3200 2282 2922 2106 1347 1051 871 460 808 1274 1120 648 676 618 906 965 1715 2550 1912 2108 2052
926 746 1003 963 1449 1536 1918 3076 1957 2336 2041 1946 2271 2535 3446 2554 1880 2707 2832 3264 3219 3710 2693 2985 2549 2920 1966 1746 1633 2169 2038 2067 1379 457 464 577 416 552 1253 1826 1807 1838 1692
1064 913 1272 1211 2086 1362 1942 1518 1593 1628 1350 1481 2133 2789 3472 2085 3029 3123 2581 3336 3983 2622 3 2 1954 1837 1541 2481 2620 2319 2135 1795 1726 905 719 512 449 146 801 1473 2039 2040 1843
1283 1150 1381 1185 2214 1733 2024 1686 2050 2388 1165 1669 2075 2974 2606 3215 2372 2378 3649 3529 4247 3226 1562 688 1025 2201 2475 3153 2380 2093 1821 1529 1379 1768 1343 865 1009 952 1156 1653 2171 2123 1737
1057 1180 1233 1425 2187 1616 2133 2016 3347 3065 3126 2670 2383 2997 2902 2804 2918 3332 3130 4108 4274 4519 2102 1675 1673 2774 2843 2728 2510 2111 1769 1601 1572 2368 1428 1952 1811 1454 1018 1381 1414 1433 1571
1059 1283 1751 1465 2094 2072 2353 2640 3269 2098 2540 2394 2742 2091 2404 2780 2996 2765 3686 3782 4566 4578 4009 3712 3255 2881 2596 2953 2755 2154 1746 2163 1999 1676 1614 1381 1374 1449 856 935 901 1299 1019
871 1263 1533 1612 1747 2068 2162 2734 3004 3101 2430 2756 2331 3629 2298 3433 2539 2368 2950 3655 4374 4475 3997 3800 3748 4536 3993 2694 2262 2226 2442 1662 1672 1758 1424 1349 1296 1275 618 870 1183 1025 546
839 1178 1291 1698 1906 1893 2263 2232 2926 3878 2374 3248 3546 3354 2490 2496 2072 2522 2725 3349 4090 4611 4024 4307 4164 4226 3438 3110 2974 2347 2311 2487 1710 1478 1248 928 1085 1097 1123 1227 752 543 62

GFSSE_con_mucape_219.txt.gz
CAPE
848 1505 2365 2391 2329 2201 2145 2285 2063 2134 1877 2241 2330 2179 2126 2051 2049 1666 1608 1589 1525 1596 1795 1654 1573 1405 1260 1429 1508 1471 1391 1271 1261 1218 1187 1197 1150 1288 1301 1186 1578 1132 1397
951 1747 2348 2636 2373 2515 2561 2482 2290 2173 2108 2180 2086 2144 2105 2014 1585 1873 2057 1818 1634 1632 1544 1520 1557 1672 1733 1619 1303 1259 1317 1043 1038 999 1149 1021 1067 840 891 1156 1392 1301 1265
1253 1596 1771 2626 2466 2250 2269 2208 2263 2240 2082 2023 1952 1983 1931 1947 1720 2056 1921 1649 1546 1539 1538 1510 1520 1528 1569 1615 1605 1452 1202 1074 1003 897 949 865 914 967 1047 1398 1024 941 767
776 1442 1874 2690 2928 2208 2428 2462 2397 2024 2015 1893 2124 1696 1402 1481 1897 1884 1707 1670 1645 1598 1485 1346 1212 1087 976 956 1012 1056 1172 1267 1339 1523 1412 1314 913 1552 1178 1124 1528 1474 1398
450 1105 1805 2542 2219 2206 2193 2292 2153 1977 1917 1872 1696 1626 1295 1166 1603 1565 1348 1453 1262 1169 1096 1035 1022 1053 1132 1260 1551 1710 1486 1362 1296 1299 1220 972 1125 1488 1782 853 900 842 977
829 1432 2136 2102 1792 1680 1943 1841 1607 2070 1999 1851 1238 1253 1187 1168 1319 1278 1264 1111 1053 799 671 757 935 1242 1521 1862 2375 2229 2173 1621 1011 488 509 318 574 1907 1901 1325 561 1037 1243
942 1403 1658 2544 2270 2017 1903 1574 1069 1731 1947 1598 1964 1626 1214 1237 1244 1195 990 777 830 1159 1558 1958 2233 2475 2671 3158 2704 2403 2549 1508 428 0 249 173 614 2829 2163 2126 1934 1594 1369
452 1010 1066 2228 2018 1660 1578 1212 1370 1801 1856 1634 1811 1733 1581 1202 1025 881 892 1168 1610 1946 2425 2309 2189 2403 2326 2439 2531 2084 1945 1169 289 0 183 332 634 2829 2217 2414 2279 1671 1549
757 947 1128 1305 1394 1827 1950 1240 1678 1890 1406 1145 1259 1356 943 830 893 962 1414 2165 1697 2374 2181 1682 1772 1649 603 927 919 1532 899 270 88 27 87 320 1040 2894 2296 2584 2175 1924 1964
679 664 928 905 453 701 1358 1143 1271 1598 1510 1000 949 872 893 1041 1227 1493 2247 2018 2125 2792 1436 770 322 108 91 422 2137 2100 145 259 13 0 68 434 1011 1893 1950 2925 2587 2652 2183
469 550 473 157 3 42 657 575 1012 1063 994 782 821 968 1327 952 1062 1045 379 473 946 1089 451 274 23 72 411 324 1539 1986 681 129 107 19 119 182 1357 1623 2397 2860 3121 3044 3027
486 462 425 305 47 445 1191 1300 533 520 618 625 660 793 1032 1053 624 391 67 75 314 253 287 360 432 287 631 388 192 518 646 396 176 245 213 664 1852 2038 2768 2533 2752 3169 3138
166 81 425 192 103 500 492 1104 1195 739 704 1130 1094 1370 1393 1652 813 525 0 9 21 206 59 502 424 710 330 284 466 599 405 717 388 316 332 1030 2170 2687 3039 3000 2727 2598 2983
40 29 63 25 43 275 124 448 771 445 725 1052 1214 782 544 849 788 370 162 248 119 168 275 270 406 247 431 734 999 1099 875 622 681 578 583 2181 2569 2981 3322 3373 3242 2977 2989
0 3 2 20 543 362 655 436 651 501 600 453 1219 474 537 1563 1026 562 307 655 284 254 690 403 357 183 235 242 1013 803 813 666 884 935 1285 3295 2867 936 2414 3088 3213 2939 3064
3 1 17 117 338 367 967 596 686 400 576 876 1238 1334 1301 1655 1734 1271 985 801 911 694 671 919 790 100 0 3 7 263 154 484 975 794 1223 2603 2869 1258 2524 3199 3165 3006 2796
27 84 111 306 337 334 1095 660 530 709 631 1259 1291 1149 1364 1544 1399 1200 1826 1356 1354 1720 1538 1285 710 171 130 192 443 295 121 549 1022 750 1142 1141 1608 2085 2466 2095 2280 2353 2274
31 108 280 403 316 242 773 693 1245 1186 451 552 1335 944 1097 1292 1201 1361 1532 1843 1522 1933 1692 1345 1427 758 680 677 724 1308 1504 1182 1017 269 575 663 166 444 1196 1099 1239 1565 1164
48 64 69 192 184 117 619 1090 1088 1035 275 542 1007 821 1104 1274 1205 1536 1300 1541 1462 1838 1466 1165 1313 1572 1162 1279 1641 1740 1813 1724 1667 1054 210 334 182 268 808 1443 1442 1148 1551
91 62 10 102 104 93 664 1077 1083 864 151 294 642 1160 1609 1301 1338 1133 1141 1762 1905 1808 1176 845 507 1056 1401 1632 2003 1686 1520 1370 1335 774 823 601 492 403 692 990 1029 1374 1145
107 92 0 155 173 186 657 439 637 585 79 147 344 1249 1146 746 2081 1266 1530 1943 2166 1912 1256 1425 1035 1096 1589 1886 1609 1327 1263 876 867 840 600 641 577 417 664 940 1092 972 937
157 142 127 437 411 160 658 160 572 612 674 365 433 1632 1042 1438 1418 1133 1645 1140 1830 2053 1845 1451 1589 1603 1634 1977 1802 1187 989 766 953 911 675 592 672 608 776 1065 973 883 849
220 232 208 319 460 226 825 374 461 1322 899 1070 1438 1182 841 971 1268 900 1174 1548 2058 1887 2382 2016 1955 1915 1812 1817 2052 1351 1055 883 1203 1000 771 616 497 595 612 659 1111 778 584
361 284 271 204 682 438 461 1229 487 749 492 837 300 1017 1218 1063 825 802 1266 1714 1692 2156 2017 2350 2413 2084 1897 1991 1562 1620 1520 1361 1311 1183 915 500 451 411 396 807 919 612 185
504 335 276 341 1080 527 396 1072 1431 1536 673 982 1093 599 895 1128 879 1151 756 717 1504 2506 1982 2424 2336 2468 2197 2115 1515 1477 1346 1503 1221 1090 826 495 401 472 362 418 594 304 57
549 475 513 443 662 907 728 1057 1224 1711 532 676 1428 1577 697 739 689 567 980 1403 1158 2008 1993 2409 2369 2425 1824 1753 1643 1453 1603 1231 871 514 456 513 289 150 262 265 214 116 74

GFSSE_con_mucape_222.txt.gz
CAPE
819 1718 2455 2688 2443 2381 2284 2171 2150 1945 2263 2272 2300 2290 2314 2015 1577 1544 1798 2011 2275 2257 1831 1501 1550 1355 1384 1428 1678 1502 1317 1406 1296 1715 1792 1773 1483 1482 2027 1840 1327 946 1284
1180 1880 2562 2688 2515 2284 2120 2250 2145 2128 2104 2162 2144 2148 1859 1679 2112 2199 1821 1840 1792 1723 1653 1599 1670 1790 1886 1598 1521 1525 1321 1250 1307 1171 1097 998 1307 1526 1345 1592 1370 1185 1293
1424 1652 2141 2726 2533 2529 2476 2198 2144 2056 1943 1975 2018 2107 2038 1839 2284 2158 1810 1745 1673 1601 1563 1574 1646 1735 1768 1784 1612 1313 1184 1096 1042 1063 1317 899 729 857 1390 1570 1527 1325 1358
1180 1444 1743 2501 2532 2104 2144 2213 2005 1844 1687 2114 1788 1471 1698 1858 2180 2024 1904 1813 1745 1660 1542 1417 1335 1302 1251 1200 1238 1268 1377 1492 1520 1367 1147 1321 730 973 1595 1769 1401 964 777
1261 1565 1724 2489 2336 2068 2131 1982 1860 2075 1845 1840 1579 1337 1253 1463 1937 1433 1484 1424 1193 1116 1115 1112 1196 1280 1331 1444 1591 1635 1546 1462 1427 1440 1340 1134 861 1317 1257 1627 1387 1391 1072
1073 1507 2134 2061 1887 1912 1737 1682 1843 1890 1836 1518 1495 1160 1175 1344 1433 1281 1205 1092 1008 832 808 1050 1427 1726 1862 1883 1958 1915 1950 1777 1721 1169 711 608 985 1784 1796 1142 1481 1314 1362
1187 1380 1603 2283 1728 1882 1709 1209 1915 1925 1783 1268 1833 1157 1209 1206 1212 1182 980 797 959 1397 1317 1464 1418 1593 1708 2240 3014 3218 2699 2404 1441 390 352 390 1029 2419 2098 1403 1003 1213 1453
977 1282 1712 2191 1740 1688 1673 812 1367 1831 1973 1853 1866 1793 1535 1285 1198 1063 1018 1192 1402 1042 123 334 1007 1308 1109 1456 1919 2406 2446 2448 1063 472 169 356 693 2729 2293 2053 2552 2208 1609
840 1129 1478 1190 1072 1449 1375 898 1626 1750 1579 1426 1583 1600 1192 1047 1242 1562 1772 1664 1477 211 78 40 651 161 443 815 2011 1142 1121 1805 724 232 152 386 592 2288 2496 3113 2517 2479 1966
576 886 1132 1212 1144 1476 908 1275 1888 2027 1381 1061 1172 1017 1260 1241 791 647 737 1633 1451 1003 238 32 444 149 856 935 1245 614 442 969 520 124 94 230 685 2228 2397 3257 2998 2834 2736
528 841 676 573 603 1019 1036 699 1467 1562 1360 907 851 923 364 199 111 230 404 777 1311 1309 794 556 420 509 1007 393 609 1058 950 502 212 151 114 135 755 1966 3022 3451 3167 2892 2615
307 440 269 0 21 66 473 350 352 592 576 591 633 581 510 8 5 336 276 388 880 441 248 308 505 403 702 173 241 356 958 1008 381 274 187 290 788 1739 3043 3301 3644 3314 3092
337 317 107 0 34 91 828 910 316 427 651 898 796 759 821 277 122 412 136 108 94 124 147 104 97 81 717 97 649 869 575 804 631 444 408 936 1104 2114 2149 2823 3205 2520 2987
401 247 128 0 55 364 903 753 782 586 559 952 1238 858 575 555 359 428 250 65 115 147 191 182 186 83 12 71 217 893 814 697 626 580 542 1084 1354 2203 2630 2882 3060 2663 2891
51 127 181 0 19 254 289 400 616 569 446 616 933 325 626 764 502 537 326 419 333 227 244 189 131 94 75 5 0 178 382 450 774 778 779 798 1959 2464 964 1084 2501 2117 2243
1 119 40 122 150 334 534 363 372 449 357 469 918 581 1064 1464 989 839 883 840 721 530 369 411 309 79 78 208 266 535 470 268 844 726 779 797 2621 1410 1451 1659 2466 2176 1529
0 0 7 26 119 393 508 364 319 482 383 331 812 1135 1349 1355 1254 1159 1281 1040 991 949 891 737 564 335 443 925 1165 1329 1534 948 810 907 1273 1606 1911 1802 2303 2531 1530 1157 690
0 0 49 206 73 253 488 303 517 886 767 527 812 915 1192 1095 1090 1232 1433 1352 1486 1290 1145 1068 1012 1063 1122 1364 1544 1410 1413 1345 861 472 677 552 171 392 1152 1932 1082 1013 745
0 0 77 126 67 193 365 556 571 593 594 239 879 1059 843 971 1235 1368 876 1205 1467 1034 932 666 709 1179 1463 1538 1561 1398 1159 1329 1142 683 619 543 412 382 827 1148 1727 1541 1181
14 39 169 105 12 126 284 752 719 598 528 107 305 960 871 1023 1075 1062 1062 1771 1912 1610 1159 1101 1124 1248 1483 1867 1672 1255 1021 781 708 750 709 619 617 446 785 1026 1158 1149 1372
23 48 133 100 0 0 284 475 397 307 316 131 305 999 1113 1227 1597 1085 1070 1525 1666 1572 1529 1589 1565 1641 1687 1814 1481 1198 925 739 819 844 516 541 486 645 793 965 1018 838 1044
33 80 60 56 2 16 265 220 212 256 313 281 155 770 1162 715 1331 1077 1243 1046 1232 1776 1710 1886 1979 1846 1730 1728 1477 927 793 616 875 863 574 398 408 475 784 1005 576 487 417
76 98 132 40 1 15 323 41 154 504 674 830 723 995 949 712 962 1012 750 984 1284 1522 1671 2166 2163 2026 1817 1714 1471 1391 1092 804 1009 740 392 315 319 340 543 662 549 248 68
82 117 159 171 18 9 518 264 95 194 384 485 835 1044 708 725 758 702 621 865 1231 1508 2061 2151 2050 2108 1942 1645 1276 1139 1109 993 1050 703 379 70 81 144 468 545 395 237 131
138 160 177 237 117 25 52 443 818 498 429 545 1201 1003 488 909 1004 566 672 983 830 1329 1836 1886 1939 1936 1841 1659 1431 1141 1165 872 418 310 72 55 5 67 232 312 185 177 46
167 179 248 270 187 78 76 230 646 1317 1156 584 703 901 845 722 709 855 1219 916 1050 1167 2187 1814 1881 1963 1915 1657 1235 938 362 334 133 67 48 12 1 2 31 84 93 8 6